Time,TemperatureF,DewpointF,PressureIn,WindDirection,WindDirectionDegrees,WindSpeedMPH,WindSpeedGustMPH,Humidity,HourlyPrecipIn,Conditions,Clouds,dailyrainin,SolarRadiationWatts/m^2,SoftwareType,DateUTC
2013-01-03 00:15:00,9.2,2.0,30.21,SSW,204,1.0,3.0,72,0.00,,,0.00,0,weatherlink.com 1.10,2013-01-03 05:15:00,
2013-01-03 00:29:00,8.4,1.0,30.21,NW,306,1.0,3.0,71,0.00,,,0.00,0,weatherlink.com 1.10,2013-01-03 05:29:00,
2013-01-03 00:45:00,7.7,0.0,30.22,NNW,327,0.0,4.0,71,0.00,,,0.00,0,weatherlink.com 1.10,2013-01-03 05:45:00,
2013-01-03 01:00:00,7.3,0.0,30.23,SW,230,0.0,2.0,71,0.00,,,0.00,0,weatherlink.com 1.10,2013-01-03 06:00:00,
2013-01-03 01:15:00,6.7,-1.0,30.22,WSW,243,0.0,2.0,72,0.00,,,0.00,0,weatherlink.com 1.10,2013-01-03 06:15:00,
2013-01-03 01:30:00,6.2,-1.0,30.22,SSW,197,1.0,5.0,72,0.00,,,0.00,0,weatherlink.com 1.10,2013-01-03 06:30:00,
2013-01-03 01:45:00,5.8,-1.0,30.23,South,171,0.0,4.0,72,0.00,,,0.00,0,weatherlink.com 1.10,2013-01-03 06:45:00,
2013-01-03 02:00:00,5.4,-2.0,30.24,SSW,207,0.0,2.0,72,0.00,,,0.00,0,weatherlink.com 1.10,2013-01-03 07:00:00,
2013-01-03 02:15:00,5.0,-2.0,30.23,SSW,197,1.0,5.0,72,0.00,,,0.00,0,weatherlink.com 1.10,2013-01-03 07:15:00,
2013-01-03 02:45:00,4.3,-3.0,30.23,SW,219,1.0,2.0,72,0.00,,,0.00,0,weatherlink.com 1.10,2013-01-03 07:45:00,
2013-01-03 03:00:00,4.1,-3.0,30.23,SSE,155,0.0,2.0,72,0.00,,,0.00,0,weatherlink.com 1.10,2013-01-03 08:00:00,
2013-01-03 03:15:00,3.9,-3.0,30.23,SSE,154,0.0,2.0,72,0.00,,,0.00,0,weatherlink.com 1.10,2013-01-03 08:15:00,
2013-01-03 03:30:00,3.5,-4.0,30.22,SE,141,0.0,2.0,72,0.00,,,0.00,0,weatherlink.com 1.10,2013-01-03 08:30:00,
2013-01-03 03:46:00,3.2,-4.0,30.22,NNE,22,0.0,3.0,73,0.00,,,0.00,0,weatherlink.com 1.10,2013-01-03 08:46:00,
2013-01-03 04:00:00,3.1,-4.0,30.22,NNE,17,0.0,2.0,73,0.00,,,0.00,0,weatherlink.com 1.10,2013-01-03 09:00:00,
2013-01-03 04:16:00,2.9,-4.0,30.22,NNE,12,0.0,2.0,73,0.00,,,0.00,0,weatherlink.com 1.10,2013-01-03 09:16:00,
2013-01-03 04:31:00,2.7,-4.0,30.21,NNE,12,0.0,2.0,73,0.00,,,0.00,0,weatherlink.com 1.10,2013-01-03 09:31:00,
2013-01-03 04:46:00,2.6,-4.0,30.22,NNE,12,0.0,2.0,73,0.00,,,0.00,0,weatherlink.com 1.10,2013-01-03 09:46:00,
2013-01-03 05:01:00,2.3,-5.0,30.22,North,349,0.0,3.0,73,0.00,,,0.00,0,weatherlink.com 1.10,2013-01-03 10:01:00,
2013-01-03 05:16:00,2.1,-5.0,30.21,North,349,0.0,1.0,73,0.00,,,0.00,0,weatherlink.com 1.10,2013-01-03 10:16:00,
2013-01-03 05:31:00,1.9,-5.0,30.21,North,349,0.0,1.0,73,0.00,,,0.00,0,weatherlink.com 1.10,2013-01-03 10:31:00,
2013-01-03 06:16:00,1.1,-5.0,30.22,North,349,0.0,1.0,74,0.00,,,0.00,0,weatherlink.com 1.10,2013-01-03 11:16:00,
2013-01-03 06:31:00,1.1,-5.0,30.22,North,349,0.0,0.0,75,0.00,,,0.00,0,weatherlink.com 1.10,2013-01-03 11:31:00,
2013-01-03 06:46:00,1.0,-5.0,30.23,North,349,0.0,1.0,75,0.00,,,0.00,0,weatherlink.com 1.10,2013-01-03 11:46:00,
2013-01-03 07:01:00,0.8,-5.0,30.23,North,349,0.0,1.0,75,0.00,,,0.00,0,weatherlink.com 1.10,2013-01-03 12:01:00,
2013-01-03 07:16:00,0.8,-5.0,30.23,North,349,0.0,2.0,76,0.00,,,0.00,0,weatherlink.com 1.10,2013-01-03 12:16:00,
2013-01-03 07:31:00,0.7,-5.0,30.22,North,349,0.0,2.0,76,0.00,,,0.00,0,weatherlink.com 1.10,2013-01-03 12:31:00,
2013-01-03 07:47:00,0.5,-5.0,30.22,North,349,0.0,2.0,77,0.00,,,0.00,12,weatherlink.com 1.10,2013-01-03 12:47:00,
2013-01-03 08:02:00,0.7,-5.0,30.21,North,349,0.0,2.0,77,0.00,,,0.00,16,weatherlink.com 1.10,2013-01-03 13:02:00,
2013-01-03 08:17:00,1.5,-4.0,30.21,North,349,1.0,1.0,78,0.00,,,0.00,23,weatherlink.com 1.10,2013-01-03 13:17:00,
2013-01-03 08:32:00,1.9,-4.0,30.21,North,349,0.0,2.0,78,0.00,,,0.00,28,weatherlink.com 1.10,2013-01-03 13:32:00,
2013-01-03 08:47:00,2.2,-3.0,30.21,North,349,0.0,1.0,78,0.00,,,0.00,32,weatherlink.com 1.10,2013-01-03 13:47:00,
2013-01-03 09:02:00,2.6,-3.0,30.21,North,349,0.0,2.0,77,0.00,,,0.00,30,weatherlink.com 1.10,2013-01-03 14:02:00,
2013-01-03 09:17:00,2.7,-3.0,30.21,North,349,0.0,1.0,76,0.00,,,0.00,28,weatherlink.com 1.10,2013-01-03 14:17:00,
2013-01-03 09:47:00,3.6,-3.0,30.21,NNW,338,0.0,2.0,74,0.00,,,0.00,28,weatherlink.com 1.10,2013-01-03 14:47:00,
2013-01-03 10:02:00,4.1,-3.0,30.21,NNW,338,0.0,2.0,74,0.00,,,0.00,30,weatherlink.com 1.10,2013-01-03 15:02:00,
2013-01-03 10:17:00,4.6,-2.0,30.21,NNW,338,0.0,2.0,73,0.00,,,0.00,69,weatherlink.com 1.10,2013-01-03 15:17:00,
2013-01-03 10:32:00,5.0,-3.0,30.20,NNW,337,2.0,2.0,71,0.00,,,0.00,128,weatherlink.com 1.10,2013-01-03 15:32:00,
2013-01-03 10:47:00,6.4,-1.0,30.19,NNW,337,0.0,1.0,72,0.00,,,0.00,109,weatherlink.com 1.10,2013-01-03 15:47:00,
2013-01-03 11:02:00,6.5,0.0,30.18,NNW,337,0.0,1.0,73,0.00,,,0.00,148,weatherlink.com 1.10,2013-01-03 16:02:00,
2013-01-03 11:48:00,8.3,0.0,30.16,NNW,335,1.0,3.0,69,0.00,,,0.00,223,weatherlink.com 1.10,2013-01-03 16:48:00,
2013-01-03 12:03:00,9.9,2.0,30.15,NNW,335,0.0,1.0,69,0.00,,,0.00,200,weatherlink.com 1.10,2013-01-03 17:03:00,
2013-01-03 12:18:00,10.2,2.0,30.14,NNW,335,0.0,1.0,68,0.00,,,0.00,279,weatherlink.com 1.10,2013-01-03 17:18:00,
2013-01-03 12:33:00,11.0,2.0,30.12,NNW,335,0.0,1.0,67,0.00,,,0.00,236,weatherlink.com 1.10,2013-01-03 17:33:00,
2013-01-03 12:48:00,11.9,3.0,30.11,NNW,335,0.0,1.0,66,0.00,,,0.00,452,weatherlink.com 1.10,2013-01-03 17:48:00,
2013-01-03 13:03:00,12.6,3.0,30.11,NNW,335,0.0,1.0,65,0.00,,,0.00,406,weatherlink.com 1.10,2013-01-03 18:03:00,
2013-01-03 13:33:00,13.2,2.0,30.09,NNW,335,0.0,2.0,61,0.00,,,0.00,446,weatherlink.com 1.10,2013-01-03 18:33:00,
2013-01-03 13:48:00,14.7,3.0,30.09,NNW,335,1.0,3.0,61,0.00,,,0.00,439,weatherlink.com 1.10,2013-01-03 18:48:00,
2013-01-03 14:03:00,15.7,5.0,30.08,NNW,335,0.0,1.0,62,0.00,,,0.00,371,weatherlink.com 1.10,2013-01-03 19:03:00,
2013-01-03 14:18:00,15.3,4.0,30.07,NNW,335,0.0,3.0,60,0.00,,,0.00,360,weatherlink.com 1.10,2013-01-03 19:18:00,
2013-01-03 15:19:00,15.8,5.0,30.07,NNW,335,1.0,2.0,62,0.00,,,0.00,65,weatherlink.com 1.10,2013-01-03 20:19:00,
2013-01-03 15:34:00,15.2,4.0,30.06,NNW,335,0.0,1.0,62,0.00,,,0.00,37,weatherlink.com 1.10,2013-01-03 20:34:00,
2013-01-03 15:49:00,15.1,5.0,30.06,NNW,335,0.0,0.0,63,0.00,,,0.00,33,weatherlink.com 1.10,2013-01-03 20:49:00,
2013-01-03 16:04:00,15.4,4.0,30.06,NNW,335,0.0,1.0,60,0.00,,,0.00,23,weatherlink.com 1.10,2013-01-03 21:04:00,
2013-01-03 16:19:00,15.2,4.0,30.06,NNW,335,0.0,0.0,62,0.00,,,0.00,12,weatherlink.com 1.10,2013-01-03 21:19:00,
2013-01-03 16:34:00,14.9,4.0,30.05,NNW,335,0.0,1.0,63,0.00,,,0.00,0,weatherlink.com 1.10,2013-01-03 21:34:00,
2013-01-03 16:49:00,14.6,4.0,30.05,NNW,335,0.0,1.0,64,0.00,,,0.00,0,weatherlink.com 1.10,2013-01-03 21:49:00,
2013-01-03 17:04:00,14.2,4.0,30.05,NNW,335,0.0,2.0,64,0.00,,,0.00,0,weatherlink.com 1.10,2013-01-03 22:04:00,
2013-01-03 17:19:00,14.5,5.0,30.05,NNW,335,0.0,1.0,65,0.00,,,0.00,0,weatherlink.com 1.10,2013-01-03 22:19:00,
2013-01-03 17:34:00,15.0,6.0,30.05,NNW,335,0.0,0.0,67,0.00,,,0.00,0,weatherlink.com 1.10,2013-01-03 22:34:00,
2013-01-03 17:49:00,15.2,6.0,30.05,NNW,335,0.0,1.0,66,0.00,,,0.00,0,weatherlink.com 1.10,2013-01-03 22:49:00,
2013-01-03 18:05:00,15.3,6.0,30.04,NNW,335,0.0,1.0,66,0.00,,,0.00,0,weatherlink.com 1.10,2013-01-03 23:05:00,
2013-01-03 18:35:00,15.5,6.0,30.04,NNW,335,0.0,0.0,65,0.00,,,0.00,0,weatherlink.com 1.10,2013-01-03 23:35:00,
2013-01-03 18:50:00,15.6,6.0,30.04,NNW,335,0.0,0.0,66,0.00,,,0.00,0,weatherlink.com 1.10,2013-01-03 23:50:00,
2013-01-03 19:05:00,15.7,6.0,30.04,NNW,335,0.0,0.0,66,0.00,,,0.00,0,weatherlink.com 1.10,2013-01-04 00:05:00,
2013-01-03 19:20:00,15.7,7.0,30.04,NNW,335,0.0,1.0,67,0.00,,,0.00,0,weatherlink.com 1.10,2013-01-04 00:20:00,
2013-01-03 19:35:00,15.7,7.0,30.04,NNW,335,1.0,1.0,68,0.00,,,0.00,0,weatherlink.com 1.10,2013-01-04 00:35:00,
2013-01-03 19:50:00,15.7,7.0,30.04,NNW,335,0.0,1.0,69,0.00,,,0.00,0,weatherlink.com 1.10,2013-01-04 00:50:00,
2013-01-03 20:05:00,15.7,7.0,30.04,NNW,335,0.0,1.0,69,0.00,,,0.00,0,weatherlink.com 1.10,2013-01-04 01:05:00,
2013-01-03 20:20:00,15.7,7.0,30.02,NNW,335,0.0,1.0,68,0.00,,,0.00,0,weatherlink.com 1.10,2013-01-04 01:20:00,
2013-01-03 20:35:00,15.6,7.0,30.03,NNW,335,1.0,1.0,69,0.00,,,0.00,0,weatherlink.com 1.10,2013-01-04 01:35:00,
2013-01-03 20:50:00,15.7,8.0,30.02,NNW,335,0.0,1.0,70,0.00,,,0.00,0,weatherlink.com 1.10,2013-01-04 01:50:00,
2013-01-03 21:05:00,15.8,8.0,30.01,NNW,335,0.0,2.0,71,0.00,,,0.00,0,weatherlink.com 1.10,2013-01-04 02:05:00,
2013-01-03 21:20:00,16.0,8.0,30.02,NNW,335,0.0,0.0,72,0.00,,,0.00,0,weatherlink.com 1.10,2013-01-04 02:20:00,
2013-01-03 21:36:00,16.1,9.0,30.01,NNW,335,0.0,0.0,72,0.00,,,0.00,0,weatherlink.com 1.10,2013-01-04 02:36:00,
2013-01-03 21:51:00,16.1,9.0,30.01,NNW,335,0.0,1.0,72,0.00,,,0.00,0,weatherlink.com 1.10,2013-01-04 02:51:00,
2013-01-03 22:06:00,16.4,9.0,30.00,NNW,335,0.0,1.0,73,0.00,,,0.00,0,weatherlink.com 1.10,2013-01-04 03:06:00,
2013-01-03 22:36:00,16.7,9.0,30.00,NNW,335,0.0,0.0,73,0.00,,,0.00,0,weatherlink.com 1.10,2013-01-04 03:36:00,
2013-01-03 22:51:00,16.7,10.0,30.00,NNW,335,0.0,0.0,74,0.00,,,0.00,0,weatherlink.com 1.10,2013-01-04 03:51:00,
2013-01-03 23:06:00,16.8,10.0,29.99,NNW,335,0.0,0.0,74,0.00,,,0.00,0,weatherlink.com 1.10,2013-01-04 04:06:00,
2013-01-03 23:21:00,16.9,10.0,29.99,NNW,335,0.0,0.0,74,0.00,,,0.00,0,weatherlink.com 1.10,2013-01-04 04:21:00,
2013-01-03 23:36:00,17.1,10.0,29.98,NNW,335,0.0,1.0,75,0.00,,,0.00,0,weatherlink.com 1.10,2013-01-04 04:36:00,
2013-01-03 23:51:00,17.4,11.0,29.98,NNW,335,0.0,0.0,75,0.00,,,0.00,0,weatherlink.com 1.10,2013-01-04 04:51:00,